Location: Enkingen
(48.8279°N, 10.5728°E)
Time: 05:42:01
(UTC+00:00)

Daily predictions for brighter satellites

Satellite Brightness Start Highest point End
(mag) Time Altitude Azimuth Time Altitude Azimuth Time Altitude Azimuth
Resurs 1-4 Rocket 4.1 00:00:57 10° NE 00:04:34 18° E 00:04:50 18° E
Cosmos 1464 Rocket 4.1 00:00:42 10° NNW 00:06:34 69° WNW 00:06:34 69° WNW
Cosmos 909 Rocket 4.4 00:06:56 73° SSW 00:07:51 87° SE 00:17:05 10° NE
Cosmos 2360 Rocket 3.0 00:09:55 43° E 00:09:55 43° E 00:14:22 10° NE
Aureole 3 Rocket 4.4 00:06:35 10° N 00:10:25 41° NNE 00:10:25 41° NNE
Cosmos 2263 Rocket 4.3 00:09:19 10° WNW 00:10:39 14° WNW 00:10:39 14° WNW
Lacrosse 4 Rocket 3.3 00:15:02 27° NNE 00:15:02 27° NNE 00:17:03 10° NNE
NOSS 3-4 (A) 4.4 00:16:26 32° E 00:16:26 32° E 00:20:42 10° NE
NOSS 3-4 (C) 4.4 00:16:29 32° E 00:16:29 32° E 00:20:45 10° NE
Cosmos 1570 Rocket 4.5 00:17:04 59° NNE 00:17:04 59° NNE 00:21:18 10° NNE
USA 32 4.4 00:17:37 60° NE 00:17:37 60° NE 00:22:00 10° N
Cosmos 2322 Rocket 2.5 00:19:32 62° ENE 00:19:32 62° ENE 00:24:22 10° NNE
Cosmos 2034 Rocket 3.9 00:19:31 10° NNW 00:25:21 73° WNW 00:25:21 73° WNW
IDEFIX/ARIANE 42P 3.8 00:21:11 10° NNE 00:25:44 31° E 00:25:44 31° E
NOSS 3-2 (C) 4.0 00:19:13 10° NW 00:26:36 63° SW 00:26:40 63° SW
Cosmos 2219 Rocket 3.2 00:27:21 34° E 00:27:21 34° E 00:32:00 10° NE
SL-16 R/B 2.4 00:35:17 61° NW 00:35:17 61° NW 00:40:43 10° NNE
Cosmos 1844 4.3 00:29:33 10° NW 00:33:46 47° WNW 00:33:46 47° WNW
USA 267 3.4 00:42:48 56° W 00:42:48 56° W 00:48:10 10° WNW
H-2A R/B 4.5 00:40:05 10° NNW 00:41:37 14° NW 00:41:37 14° NW
GEOS 3 Rocket 4.3 00:49:53 43° WNW 00:49:53 43° WNW 00:53:30 10° NW
Meteor 1-26 Rocket 4.2 00:48:58 71° ESE 00:49:06 71° E 00:54:53 10° NNE
Cosmos 1634 Rocket 3.9 00:45:07 10° N 00:51:29 89° WSW 00:52:05 75° S
ADEOS II 3.5 00:47:37 10° NE 00:52:08 28° E 00:53:12 26° ESE
Meteor 2-16 Rocket 4.5 00:52:36 62° W 00:52:43 62° WNW 00:58:48 10° N
Timation 2 Rocket 4.1 00:46:59 10° NW 00:53:00 59° W 00:53:00 59° W
SL-16 R/B 3.6 00:51:35 14° SE 00:56:28 41° ENE 01:02:15 10° N
Cosmos 1844 Rocket 4.1 00:55:13 10° NW 00:58:03 26° WNW 00:58:03 26° WNW
Cosmos 1980 Rocket 4.4 00:57:35 12° WNW 01:00:17 17° NW 01:03:50 10° N
CZ-2D R/B 2.6 00:58:28 10° NNE 01:03:41 51° E 01:04:21 48° SE
Meteor 1-5 Rocket 4.3 00:58:49 10° NNW 01:04:15 64° W 01:04:15 64° W
Cosmos 1900 4.4 01:08:39 10° NW 01:13:46 77° NE 01:14:28 64° ESE
Cosmos 1842 Rocket 4.3 01:13:46 46° E 01:13:49 46° E 01:18:04 10° NNE
Cosmos 1943 Rocket 4.2 01:13:34 10° NNW 01:18:22 27° NE 01:23:10 10° ESE
COSMOS 2428 3.3 01:22:41 40° SE 01:23:56 47° ESE 01:29:22 10° NE
USA 238 DEB 4.1 01:18:52 10° NW 01:25:51 47° WSW 01:26:01 47° WSW
USA 238 4.1 01:18:57 10° NW 01:25:59 48° WSW 01:26:14 47° SW
IRIDIUM 104 4.3 01:21:07 10° N 01:26:22 82° E 01:27:10 64° SSE
Meteor 1-11 Rocket 4.4 01:24:36 10° N 01:30:05 51° ENE 01:34:01 18° SE
Cosmos 2237 Rocket 4.0 01:29:23 16° SE 01:32:16 23° ESE 01:36:40 10° NE
CZ-2C R/B 2.5 01:31:22 58° S 01:32:30 84° WSW 01:37:56 10° NNW
Cosmos 489 Rocket 4.5 01:27:12 10° NNW 01:33:22 59° WSW 01:34:06 55° SW
IRIDIUM 114 4.2 01:30:16 10° N 01:35:31 84° W 01:36:18 65° SSW
BREEZE-M DEB (TANK) 4.2 01:37:59 16° E 01:37:59 16° E 01:38:29 10° E
Cosmos 1867 3.6 01:31:22 10° NW 01:36:54 80° NE 01:42:22 10° SE
CZ-2C R/B 3.3 01:32:50 10° NNE 01:37:52 62° ESE 01:39:23 43° SSE
NPP 3.6 01:33:19 10° N 01:38:41 69° WNW 01:39:31 59° WSW
Cosmos 2221 3.2 01:40:19 41° NW 01:40:19 41° NW 01:43:46 10° N
AQUA 4.2 01:35:07 10° NNE 01:39:48 57° E 01:40:53 45° SSE
Cosmos 2322 3.7 01:38:31 54° S 01:39:50 75° ESE 01:45:34 10° NNE
Cosmos 2279 Rocket 4.0 01:35:41 10° NNW 01:41:47 58° W 01:42:58 50° SW
Cosmos 2333 4.5 01:42:17 46° W 01:43:21 53° NW 01:48:50 10° NNE
IRIDIUM 103 4.2 01:39:26 10° N 01:44:40 71° W 01:45:26 60° SW
Resurs 1-4 Rocket 2.0 01:39:37 10° NNE 01:44:56 73° WNW 01:45:54 57° SW
Lacrosse 5 2.0 01:44:47 52° W 01:45:51 66° NNW 01:50:58 10° NE
COSMOS 2441 4.3 01:42:05 10° NNE 01:47:01 88° E 01:47:56 60° SSW
Cosmos 2333 Rocket 2.8 01:46:53 37° W 01:48:11 42° NW 01:53:33 10° NNE
Nadezhda 4 Rocket 4.1 01:45:46 35° S 01:48:30 73° E 01:54:36 10° NNE
ALOS 3.1 01:44:23 10° NNE 01:48:49 45° E 01:50:36 30° SSE
USA 215 3.8 01:42:47 10° ENE 01:49:05 53° NNW 01:53:22 21° W
Cosmos 44 Rocket 3.4 01:48:57 59° WSW 01:49:55 77° NW 01:55:06 10° NE
Lacrosse 4 Rocket 3.9 01:50:59 10° NW 01:52:21 11° NNW 01:53:43 10° N
Cosmos 972 Rocket 4.1 01:51:41 52° WSW 01:52:46 64° WNW 01:57:53 10° NNE
Cosmos 2360 Rocket 3.2 01:51:39 30° W 01:53:09 35° NW 01:58:18 10° NNE
Molniya-1 4.3 01:52:55 50° SSW 01:54:16 83° SE 02:05:48 10° NE
Cosmos 1743 4.4 01:52:26 10° NNW 01:54:04 22° NW 01:54:04 22° NW
Sich 1 3.4 01:54:51 10° N 01:59:03 59° ENE 02:01:15 26° SSE
BlueWalker 3 2.2 01:58:05 43° NW 01:59:09 66° NNE 02:02:58 10° ESE
SAR-Lupe-1 4.0 01:57:33 10° NNE 02:01:10 79° ESE 02:01:17 78° SE
Cosmos 2278 Rocket 2.3 01:56:25 10° NNW 02:02:08 78° ENE 02:07:49 10° SSE
Cosmos 2344 4.0 01:54:23 10° NW 02:02:44 87° SW 02:14:19 10° SE
Cosmos 2322 Rocket 3.6 02:01:19 21° WNW 02:03:21 25° NW 02:07:59 10° N
IDEFIX/ARIANE 42P 3.1 02:00:35 10° N 02:05:25 41° WNW 02:06:30 37° W
NOSS 3-4 (A) 3.7 02:03:50 35° W 02:05:59 53° NW 02:12:04 10° NE
NOSS 3-4 (C) 3.7 02:03:53 35° W 02:06:02 54° NW 02:12:07 10° NE
Cosmos 1743 Rocket 3.7 02:02:41 10° N 02:07:01 70° E 02:09:29 25° SSE
Cosmos 1538 Rocket 4.0 02:07:18 40° SSW 02:09:19 84° ESE 02:14:41 10° NNE
Cosmos 2219 Rocket 2.7 02:09:03 34° W 02:10:49 45° NW 02:16:12 10° NNE
Cosmos 1536 2.6 02:07:01 10° NNW 02:10:52 68° W 02:11:03 66° WSW
Okean 3 Rocket 4.3 02:07:00 10° NNW 02:10:57 37° W 02:10:57 37° W
MSX 4.3 02:06:43 10° N 02:12:14 47° WNW 02:14:08 35° WSW
SAR-Lupe-4 3.4 02:08:42 10° N 02:12:15 72° WNW 02:12:23 71° W
Cosmos 192 4.3 02:07:53 10° NNW 02:12:49 86° ENE 02:17:43 10° SSE
Gbstr 26 Del rocket 2.7 02:13:49 58° SW 02:14:32 75° SSE 02:18:22 10° ENE
EO 1 Delta rocket 4.3 02:12:14 10° NNE 02:16:54 56° E 02:20:07 19° S
Meteor 2-10 4.3 02:11:16 10° N 02:16:54 81° E 02:22:36 10° SSE
COBE Rocket 4.4 02:13:48 10° N 02:18:10 40° WNW 02:19:05 36° W
GP-B 3.0 02:14:34 10° N 02:19:00 77° W 02:20:37 39° SSW
Meteor 1-28 Rocket 4.0 02:20:07 33° WNW 02:20:07 33° WNW 02:22:45 10° NNW
SL-16 R/B 4.3 02:17:07 11° WNW 02:20:24 16° NW 02:23:54 10° N
NOSS 2-2 (E) 3.9 02:20:51 10° NW 02:25:16 70° SW 02:31:34 10° SSE
Cosmos 1726 3.1 02:25:35 10° NNW 02:27:31 27° NW 02:27:31 27° NW
BREEZE-M DEB (TANK) 3.4 02:27:07 30° W 02:28:51 85° N 02:38:42 10° E
Okean 1 3.1 02:29:45 46° SW 02:30:43 67° W 02:34:31 10° N
Cosmos 1092 Rocket 4.0 02:26:21 16° S 02:31:20 81° E 02:37:29 10° N
CZ-2C R/B 3.6 02:26:42 10° NNE 02:31:39 43° E 02:36:32 10° S
ADEOS II 2.5 02:26:56 10° N 02:31:56 46° WNW 02:34:05 30° WSW
FENGYUN 3A 3.9 02:29:20 10° N 02:34:36 52° WNW 02:37:10 29° SW
Meteor 1-19 Rocket 4.3 02:30:32 21° S 02:34:41 89° W 02:40:45 10° NNE
Cosmos 2026 Rocket 4.0 02:33:59 16° S 02:39:13 89° WNW 02:45:37 10° N
Cosmos 1461 2.6 02:35:28 10° NW 02:39:15 56° WSW 02:42:58 10° SSE
NOSS 2-2 (D) 3.8 02:35:18 10° NW 02:39:39 72° SW 02:45:49 10° SSE
SL-16 R/B 2.9 02:36:39 23° SSW 02:40:03 41° W 02:45:55 10° NNW
Kosmos-1783 4.1 02:42:15 25° ENE 02:42:15 25° ENE 02:43:15 10° NE
ATLAS 5 CENTAUR R/B 3.3 02:38:39 10° NNW 02:43:05 41° NE 02:48:31 10° ESE
CZ-2D R/B 3.3 02:38:58 10° N 02:43:27 28° WNW 02:45:38 21° W
RESURS DK-1 2.3 02:41:52 34° SW 02:43:29 66° WNW 02:47:33 10° NNE
Cosmos 1151 Rocket 2.9 02:40:49 23° S 02:43:30 87° WNW 02:47:51 10° N
Cosmos 923 Rocket 4.1 02:42:04 19° SSW 02:45:50 78° ESE 02:51:07 10° NNE
Envisat 3.1 02:44:13 10° NNE 02:49:19 76° ESE 02:54:11 11° S
Cosmos 921 Rocket 4.2 02:50:29 10° S 02:54:26 39° ESE 02:58:29 10° NNE
Cosmos 1975 2.7 02:55:47 10° N 02:59:39 89° E 03:03:30 10° S
Meteor 1-27 Rocket 4.0 02:56:58 19° SW 03:01:06 54° WNW 03:06:42 10° N
Cosmos 1371 Rocket 4.0 02:56:34 10° NNW 03:01:50 89° ENE 03:07:07 10° SSE
Cosmos 1943 Rocket 2.1 02:56:57 10° NNW 03:02:35 66° WSW 03:08:11 10° SSE
Cosmos 1340 2.4 02:59:55 10° N 03:03:22 82° ENE 03:06:48 10° SSE
ATLAS 2AS CENTAUR R/B 3.7 02:58:25 10° S 03:05:29 48° ESE 03:12:17 10° NE
Thor Agena Rocket 3.6 03:00:33 10° NNE 03:05:37 77° ESE 03:10:40 10° S
Meteor 2-4 Rocket 3.7 03:01:19 10° S 03:06:42 80° E 03:12:15 10° NNE
COSMOS 2428 3.6 03:04:40 18° WSW 03:08:20 36° NW 03:13:34 10° NNE
NOAA 11 4.2 03:03:19 10° NNE 03:08:47 89° WNW 03:14:15 10° SSW
H-2A R/B 3.9 03:04:46 10° NNE 03:09:10 30° E 03:13:37 10° SSE
CZ-4 R/B 3.9 03:04:47 10° N 03:09:30 60° WNW 03:13:29 14° SSW
Cosmos 1626 2.8 03:07:40 10° S 03:10:50 47° E 03:14:02 10° NNE
CZ-2C R/B 4.4 03:12:51 13° W 03:13:32 14° W 03:16:11 10° WNW
Cosmos 1666 Rocket 3.5 03:09:13 10° NNW 03:13:39 66° W 03:18:03 10° S
Cosmos 2237 Rocket 2.3 03:11:13 16° SW 03:15:50 65° WNW 03:21:32 10° NNE
Cosmos 1980 3.9 03:12:33 16° SW 03:17:05 60° WNW 03:22:43 10° NNE
CZ-2C R/B 4.4 03:13:29 10° N 03:17:21 23° WNW 03:20:25 14° WSW
Intercosmos 25 Rocket 3.4 03:17:29 10° NNW 03:20:45 53° W 03:25:10 10° S
Cosmos 2369 Rocket 3.4 03:15:21 10° NNW 03:20:46 45° NE 03:26:07 10° SE
S3M 4.4 03:15:57 10° N 03:22:06 70° ENE 03:28:17 10° SSE
Resurs 1-4 Rocket 4.1 03:21:11 10° NNW 03:23:49 14° NW 03:26:27 10° W
Cosmos 2112 Rocket 4.0 03:20:03 10° SSW 03:25:23 80° WNW 03:30:47 10° NNE
ALOS 3.5 03:22:03 10° N 03:25:50 25° WNW 03:28:56 13° WSW
DMSP B5D2-2 4.0 03:23:37 10° S 03:28:46 64° WSW 03:33:57 10° NNW
Lacrosse 5 3.2 03:24:52 10° WNW 03:29:32 34° N 03:34:13 10° ENE
USA 215 4.2 03:25:20 10° ENE 03:31:28 44° N 03:37:35 10° WNW
CRYOSAT 2 4.5 03:28:22 10° N 03:33:16 83° E 03:38:09 10° S
Cosmos 2333 Rocket 4.4 03:31:39 10° NW 03:34:05 13° NNW 03:36:31 10° N
Cosmos 2266 Rocket 4.3 03:28:30 10° S 03:34:33 72° E 03:40:35 10° NNE
YAOGAN 6 2.8 03:33:18 10° N 03:36:25 43° WNW 03:39:33 10° SW
BlueWalker 3 2.6 03:33:46 10° WNW 03:37:15 33° SW 03:40:42 10° SSE
IRS-1D 3.6 03:32:19 10° N 03:37:20 63° WNW 03:42:26 10° SSW
Cosmos 1842 4.3 03:37:16 10° SSE 03:40:51 46° E 03:44:28 10° NNE
USA 290 2.0 03:41:58 10° NNW 03:45:04 78° WSW 03:48:08 10° SSE
Cosmos 2278 Rocket 3.5 03:41:40 10° WNW 03:45:32 19° W 03:49:23 10° SW
Cosmos 1328 Rocket 3.9 03:41:52 10° SSW 03:46:07 47° WNW 03:50:26 10° N
Cosmos 1340 Rocket 3.6 03:43:32 10° SW 03:47:00 32° WNW 03:50:31 10° N
Cosmos 2315 Rocket 4.3 03:41:59 10° N 03:48:14 74° E 03:54:24 10° SSE
NOSS 3-1 (C) 4.1 03:41:15 10° NW 03:48:30 77° SW 03:57:21 10° SSE
Cosmos 1633 Rocket 3.8 03:47:55 10° NNW 03:51:48 33° W 03:55:41 10° SSW
Cosmos 1680 Rocket 4.0 03:47:41 10° SW 03:52:43 44° WNW 03:57:49 10° NNE
Cosmos 1553 Rocket 4.4 03:48:50 10° NNW 03:54:40 41° W 04:00:22 10° SSW
Cosmos 2219 Rocket 4.3 03:53:48 10° WNW 03:56:18 13° NNW 03:58:48 10° N
ARIANE 5 R/B 4.2 03:52:29 10° NNE 03:57:23 39° E 04:02:14 10° SSE
Cosmos 1470 2.8 03:56:25 10° N 04:00:15 82° E 04:04:03 10° SSE
Gbstr 26 Del rocket 3.2 03:57:15 10° W 04:01:11 54° N 04:04:51 10° ENE
